Home > Weather > Santa Fe > Past weeks

Flag for USA Past Weather in Santa Fe, New Mexico, USA — Yesterday and Last 2 Weeks

Now
49 °F

Clear.


Feels Like: 46 °F
Forecast: 50 / 71 °F
Wind: 6 mph from North

Location: Santa Fe County Municipal Airport

Current Time: Aug 24, 2016 at 6:32:10 AM

Latest Report: Aug 24, 2016 at 5:53 AM


Visibility: 10 mi

Pressure: 30.00 "Hg (23.18 "Hg at 2132m altitude)

Humidity: 93%

Dew Point: 47 °F

Location of Santa FeLocation

Past Weather in Santa Fe — Graph

°F

Santa Fe Temperature Yesterday

Maximum temperature yesterday: 77 °F (at 12:53 PM)
Minimum temperature yesterday: 51 °F (at 2:53 AM)
Average temperature yesterday: 63 °F

High & Low Weather Summary for the Past Weeks

 TemperatureHumidityPressure
High88 °F (Aug 9, 4:53 PM)97% (Aug 14, 5:53 AM)30.27 "Hg (Aug 14, 5:53 AM)
Low49 °F (Aug 24, 4:53 AM)14% (Aug 15, 5:53 PM)29.77 "Hg (Aug 9, 4:53 PM)
Average67 °F56%29.96 "Hg
* Reported Aug 9 4:53 AM — Aug 24 4:53 AM, Santa Fe, Weather by CustomWeather, © 2016

Note: Actual official high and low records may vary slightly from our data, if they occured in-between our weather recording intervals... More about our weather records

Advertising

Santa Fe Weather History for the Previous 24 Hours

Scroll right to see more
 ConditionsComfort  
Time TempWeatherWind HumidityBarometerVisibility
4:53 AM
Wed, Aug 24
49 °FClear.5 mph90%29.98 "Hg10 mi
3:53 AM52 °FClear.5 mph83%29.98 "Hg10 mi
2:53 AM55 °FClear.5 mph77%29.98 "Hg10 mi
1:53 AM56 °FClear.3 mph75%29.98 "Hg10 mi
12:53 AM59 °FClear.No wind69%29.97 "Hg10 mi
11:53 PM
Tue, Aug 23
59 °FClear.No wind67%29.98 "Hg10 mi
10:53 PM59 °FPassing clouds.No wind67%29.99 "Hg10 mi
9:53 PM60 °FPassing clouds.7 mph65%29.98 "Hg10 mi
8:53 PM63 °FPassing clouds.9 mph58%29.98 "Hg10 mi
7:53 PM66 °FSunny.8 mph52%29.97 "Hg10 mi
6:53 PM73 °FSunny.9 mph34%29.95 "Hg10 mi
5:53 PM74 °FSunny.10 mph33%29.95 "Hg10 mi
4:53 PM76 °FSunny.14 mph31%29.94 "Hg10 mi
3:53 PM77 °FPassing clouds.23 mph35%29.95 "Hg10 mi
2:53 PM74 °FSunny.13 mph36%29.96 "Hg10 mi
1:53 PM77 °FSunny.12 mph30%29.96 "Hg10 mi
12:53 PM77 °FSunny.10 mph35%29.99 "Hg10 mi
11:53 AM72 °FSunny.7 mph46%30.01 "Hg10 mi
10:53 AM69 °FSunny.6 mph51%30.03 "Hg10 mi
9:53 AM66 °FSunny.3 mph59%30.04 "Hg10 mi
8:53 AM61 °FSunny.No wind70%30.03 "Hg10 mi
7:53 AM56 °FSunny.8 mph84%30.04 "Hg10 mi
6:53 AM51 °FClear.9 mph92%30.02 "Hg10 mi
Weather by CustomWeather, © 2016

See weather overviewHow to use our weather pages